Hamilton Island Airport, Australia

5:43 AM AEST on September 27, 2016 (GMT +1000)
Hamilton Island

Weather History for YBHM - October, 2013

Change the Weather History Date:

Wednesday, October 9, 2013

  Actual Average Record
Temperature  
Mean Temperature 76 °F -  
Max Temperature 81 °F - - ()
Min Temperature 72 °F - - ()
Cooling Degree Days 12    
Growing Degree Days 26 (Base 50)    
Moisture  
Dew Point 70 °F    
Average Humidity 81    
Maximum Humidity 100    
Minimum Humidity 63    
Precipitation  
Precipitation 0.00 in - - ()
Sea Level Pressure  
Sea Level Pressure 30.01 in    
Wind  
Wind Speed 17 mph ()    
Max Wind Speed 30 mph    
Max Gust Speed -    
T = Trace of Precipitation, MM = Missing Value Source: Averaged Metar Reports

Daily Weather History Graph

Daily Weather History Graph

Search for Another Location

Airport or City:

Trip Planner

Search our weather history database for the weather conditions in past years. The results will help you decide how hot, cold, wet, or windy it might be!

Date:

Astronomy

Oct. 09, 2013 Rise Set
Actual Time 5:38 AM AEST 6:04 PM AEST
Civil Twilight 5:16 AM AEST 6:26 PM AEST
Nautical Twilight 4:50 AM AEST 6:52 PM AEST
Astronomical Twilight 4:24 AM AEST 7:19 PM AEST
Moon 8:43 AM AEST (10/9) 10:12 PM AEST (10/9)
Length of Visible Light 13h 10m
Length of Day
12h 25m
Waxing Crescent, 19% of the Moon is Illuminated
Oct 9
Waxing Crescent
Oct 12
First Quarter
Oct 19
Full
Oct 27
Last Quarter
Nov 3
New

Hourly Weather History & Observations

Time (AEST) Temp. Heat Index Dew Point Humidity Pressure Visibility Wind Dir Wind Speed Gust Speed Precip Events Conditions
12:00 AM 74 °F - 72 °F 94% 29.92 in - NW 12.7 mph - -  
12:00 AM 73.4 °F - 73.4 °F 100% 29.92 in - NW 12.7 mph - N/A   Unknown
12:30 AM 73.4 °F - 71.6 °F 94% 29.92 in - NNW 12.7 mph - N/A   Unknown
1:00 AM 73.4 °F - 71.6 °F 94% 29.92 in - NW 13.8 mph - N/A   Unknown
1:30 AM 73.4 °F - 71.6 °F 94% 29.89 in - NW 15.0 mph - N/A   Unknown
2:00 AM 73.4 °F - 71.6 °F 94% 29.89 in - NW 12.7 mph - N/A   Unknown
2:30 AM 73.4 °F - 71.6 °F 94% 29.89 in - WNW 10.4 mph - N/A   Unknown
3:00 AM 73 °F - 72 °F 97% 29.91 in - WNW 8.1 mph - -  
3:00 AM 73.4 °F - 71.6 °F 94% 29.92 in - WNW 8.1 mph - N/A   Unknown
3:30 AM 73.4 °F - 71.6 °F 94% 29.92 in - WNW 8.1 mph - N/A   Unknown
4:00 AM 73.4 °F - 71.6 °F 94% 29.95 in - South 10.4 mph - N/A   Unknown
4:30 AM 73.4 °F - 71.6 °F 94% 29.95 in - SSE 11.5 mph - N/A   Unknown
5:00 AM 71.6 °F - 71.6 °F 100% 29.95 in - SE 12.7 mph - N/A   Unknown
5:30 AM 71.6 °F - 71.6 °F 100% 29.98 in - SSE 19.6 mph - N/A   Unknown
6:00 AM 73 °F - 72 °F 95% 29.99 in - SSE 13.8 mph - -  
6:00 AM 73.4 °F - 71.6 °F 94% 29.98 in - SSE 13.8 mph - N/A   Unknown
6:30 AM 73.4 °F - 73.4 °F 100% 30.01 in - SSE 19.6 mph - N/A   Unknown
7:00 AM 75.2 °F - 71.6 °F 89% 30.01 in - ESE 15.0 mph - N/A   Unknown
7:30 AM 75.2 °F - 71.6 °F 89% 30.04 in - SE 17.3 mph - N/A   Unknown
8:00 AM 78.8 °F - 71.6 °F 78% 30.04 in - SE 20.7 mph - N/A   Unknown
8:30 AM 78.8 °F - 71.6 °F 78% 30.04 in - SE 23.0 mph - N/A   Unknown
9:00 AM 80 °F - 72 °F 69% 30.06 in - SE 21.9 mph - -  
9:00 AM 80.6 °F 84.6 °F 71.6 °F 74% 30.06 in - SE 21.9 mph - N/A   Unknown
9:30 AM 80.6 °F 84.6 °F 71.6 °F 74% 30.06 in - SE 21.9 mph - N/A   Unknown
10:00 AM 78.8 °F - 69.8 °F 74% 30.06 in - SE 20.7 mph - N/A   Unknown
10:30 AM 80.6 °F 85.4 °F 73.4 °F 79% 30.06 in - SE 19.6 mph - N/A   Unknown
11:00 AM 80.6 °F 83.9 °F 69.8 °F 70% 30.06 in - ESE 20.7 mph - N/A   Unknown
11:30 AM 78.8 °F - 69.8 °F 74% 30.04 in - SE 21.9 mph - N/A   Unknown
12:00 PM 81 °F - 70 °F 63% 30.05 in - ESE 24.2 mph - -  
12:00 PM 80.6 °F 83.9 °F 69.8 °F 70% 30.04 in - ESE 24.2 mph - N/A   Unknown
12:30 PM 80.6 °F 83.9 °F 69.8 °F 70% 30.04 in - ESE 23.0 mph - N/A   Unknown
1:00 PM 80.6 °F 83.9 °F 69.8 °F 70% 30.04 in - ESE 24.2 mph - N/A   Unknown
1:30 PM 80.6 °F 83.9 °F 69.8 °F 70% 30.01 in - ESE 23.0 mph - N/A   Unknown
2:00 PM 80.6 °F 83.9 °F 69.8 °F 70% 30.01 in - ESE 21.9 mph - N/A   Unknown
2:30 PM 78.8 °F - 69.8 °F 74% 30.01 in - ESE 23.0 mph - N/A   Unknown
3:00 PM 79 °F - 69 °F 63% 30.01 in - ESE 23.0 mph - -  
3:00 PM 78.8 °F - 68.0 °F 69% 30.01 in - ESE 23.0 mph - N/A   Unknown
3:30 PM 78.8 °F - 69.8 °F 74% 30.01 in - ESE 25.3 mph - N/A   Unknown
4:00 PM 77.0 °F - 68.0 °F 74% 30.01 in - ESE 25.3 mph - N/A   Unknown
4:30 PM 77.0 °F - 68.0 °F 74% 30.01 in - ESE 24.2 mph - N/A   Unknown
5:00 PM 75.2 °F - 68.0 °F 78% 30.01 in - ESE 24.2 mph - N/A   Unknown
5:30 PM 75.2 °F - 68.0 °F 78% 30.01 in - ESE 24.2 mph - N/A   Unknown
6:00 PM 75 °F - 69 °F 75% 30.03 in - East 28.8 mph - -  
6:00 PM 75.2 °F - 68.0 °F 78% 30.01 in - East 28.8 mph - N/A   Unknown
6:30 PM 75.2 °F - 68.0 °F 78% 30.04 in - East 29.9 mph - N/A   Unknown
7:00 PM 75.2 °F - 68.0 °F 78% 30.04 in - East 27.6 mph - N/A   Unknown
7:30 PM 75.2 °F - 68.0 °F 78% 30.04 in - East 29.9 mph - N/A   Unknown
8:00 PM 75.2 °F - 66.2 °F 73% 30.06 in - ESE 29.9 mph - N/A   Unknown
8:30 PM 75.2 °F - 68.0 °F 78% 30.06 in - ESE 26.5 mph - N/A   Unknown
9:00 PM 74 °F - 66 °F 71% 30.08 in - ESE 26.5 mph - -  
9:00 PM 75.2 °F - 66.2 °F 73% 30.06 in - ESE 26.5 mph - N/A   Unknown
9:30 PM 75.2 °F - 66.2 °F 73% 30.06 in - East 27.6 mph - N/A   Unknown
10:00 PM 75.2 °F - 68.0 °F 78% 30.06 in - East 27.6 mph - N/A   Unknown
10:30 PM 75.2 °F - 66.2 °F 73% 30.06 in - East 27.6 mph - N/A   Unknown
11:00 PM 75.2 °F - 64.4 °F 69% 30.06 in - East 24.2 mph - N/A   Unknown
11:30 PM 75.2 °F - 66.2 °F 73% 30.06 in - East 24.2 mph - N/A   Unknown